TimeEST,TemperatureF,Dew PointF,Humidity,Sea Level PressureIn,VisibilityMPH,Wind Direction,Wind SpeedMPH,Gust SpeedMPH,PrecipitationIn,Events,Conditions,WindDirDegrees,DateUTC
12:56 AM,6.1,1.9,83,30.04,-9999.0,North,12.7,-,0.02,,Unknown,10,2013-02-09 05:56:00
1:56 AM,5.0,1.0,84,30.01,-9999.0,North,8.1,-,0.02,,Unknown,10,2013-02-09 06:56:00
2:56 AM,3.0,-0.9,84,29.95,-9999.0,North,16.1,23.0,0.02,,Unknown,350,2013-02-09 07:56:00
3:56 AM,3.0,-2.0,80,29.95,-9999.0,North,16.1,23.0,0.01,,Unknown,350,2013-02-09 08:56:00
4:56 AM,3.0,-2.0,80,29.95,-9999.0,North,15.0,24.2,0.02,,Unknown,350,2013-02-09 09:56:00
5:56 AM,1.9,-2.0,83,29.95,-9999.0,NNW,12.7,23.0,0.03,,Unknown,340,2013-02-09 10:56:00
6:56 AM,1.9,-2.9,80,29.93,-9999.0,North,16.1,27.6,0.03,,Unknown,360,2013-02-09 11:56:00
7:56 AM,3.0,-2.0,80,29.90,-9999.0,North,26.5,39.1,0.03,,Unknown,360,2013-02-09 12:56:00
8:56 AM,3.9,-0.9,80,29.90,-9999.0,North,29.9,38.0,0.01,,Unknown,360,2013-02-09 13:56:00
9:56 AM,3.9,-0.0,84,29.91,-9999.0,North,25.3,36.8,0.03,,Unknown,360,2013-02-09 14:56:00
10:56 AM,5.0,1.0,84,29.92,-9999.0,North,24.2,36.8,0.04,,Unknown,360,2013-02-09 15:56:00
11:56 AM,6.1,1.0,80,29.92,-9999.0,North,21.9,33.4,0.02,,Unknown,350,2013-02-09 16:56:00
12:56 PM,6.1,1.9,83,29.92,-9999.0,North,24.2,39.1,0.03,,Unknown,360,2013-02-09 17:56:00
1:56 PM,6.1,1.9,83,29.93,-9999.0,North,23.0,38.0,0.01,,Unknown,350,2013-02-09 18:56:00
2:56 PM,7.0,3.0,84,29.95,-9999.0,NNW,20.7,38.0,0.02,,Unknown,340,2013-02-09 19:56:00
3:56 PM,8.1,3.9,83,29.97,-9999.0,NNW,25.3,36.8,0.01,,Unknown,340,2013-02-09 20:56:00
4:56 PM,9.0,3.9,80,29.99,-9999.0,NNW,24.2,38.0,0.02,,Unknown,340,2013-02-09 21:56:00
5:56 PM,9.0,3.9,80,30.03,-9999.0,NNW,20.7,32.2,N/A,,Unknown,340,2013-02-09 22:56:00
6:56 PM,8.1,3.9,83,30.07,-9999.0,NNW,18.4,29.9,0.01,,Unknown,330,2013-02-09 23:56:00
7:56 PM,8.1,3.0,80,30.09,-9999.0,NNW,18.4,32.2,N/A,,Unknown,340,2013-02-10 00:56:00
8:56 PM,8.1,3.0,80,30.09,-9999.0,NNW,19.6,27.6,N/A,,Unknown,330,2013-02-10 01:56:00
9:56 PM,9.0,3.9,80,30.09,-9999.0,NNW,15.0,25.3,N/A,,Unknown,330,2013-02-10 02:56:00
10:56 PM,8.1,1.9,76,30.09,-9999.0,NNW,20.7,28.8,N/A,,Unknown,330,2013-02-10 03:56:00
11:56 PM,8.1,1.0,73,30.11,-9999.0,NNW,21.9,36.8,N/A,,Unknown,330,2013-02-10 04:56:00